www.pogodaiklimat.ru

Погода и климат >> Архив погоды >> Канада >> Vancouver


АРХИВ ПОГОДЫ в Vancouver

Время (UTC), дата Ветер
(напр.,м/с)
 
Видим.   Явления Облачность Т
(С)
Тd
(С)
f
(%)
Тe
(С)
Тes
(С)
Комфортность P
(гПа)
Po
(гПа)
Тmin
(С)
Tmax
(С)
R
(мм)
R24
(мм)
S
(см)
09 18.04 В 4 24 км 10/10 600 м
[]
+9.8 +8.7 93 +7 +7 по сезону 1010.9 1010.4
12 18.04 В 4 24 км {дождь} 10/9 600 м
[Sc Ac As]
+9.9 +8.4 90 +7 +7 по сезону 1010.9 1010.4 +9.7 +14.0 0.4
15 18.04 ЮВ 3 16 км 10/10 300 м
[]
+9.9 +8.4 90 +8 +8 по сезону 1011.5 1011.0
18 18.04 ЮВ 5 24 км в посл. час ливневой дождь 9/6 200 м
[Cu Sc Ac As]
+12.6 +9.5 81 +10 +11 по сезону 1013.3 1012.8 +9.2 +12.6 1
21 18.04 ЮЗ 4 24 км 9/9 600 м
[]
+12.5 +9.7 83 +11 +11 по сезону 1014.9 1014.4
00 19.04 ЮЗ 2 19 км слабый ливневой дождь 9/6 600 м
[Cu Sc Ac As Ci fib]
+12.7 +6.1 64 +12 +14 по сезону 1015.4 1014.9 +9.2 +14.3 0.4
03 19.04 С 2 30 км 6/6 1000 м
[]
+9.4 +7.0 85 +8 +8 по сезону 1016.3 1015.8
06 19.04 В 4 30 км {ливн. осадки} 9/3 1000 м
[Sc Ac As]
+9.5 +7.3 86 +7 +7 по сезону 1017.8 1017.3 +9.1 +14.3 3 22
09 19.04 В 5 30 км 6/6 1000 м
[]
+7.8 +6.4 91 +4 +4 по сезону 1017.4 1016.9
12 19.04 В 4 30 км 10/1 1000 м
[Sc Ac As]
+7.9 +6.1 88 +5 +5 по сезону 1016.0 1015.5 +7.5 +14.3
15 19.04 В 6 45 км 10/10 1000 м
[]
+8.9 +6.0 82 +5 +5 по сезону 1015.3 1014.8
18 19.04 ЮВ 7 30 км слабый дождь 10/5 1000 м
[Sc Ac As]
+11.6 +6.2 69 +9 +9 по сезону 1016.1 1015.6 +7.5 +12.4 0.0
21 19.04 ЮВ 8 30 км 10/10 600 м
[]
+11.9 +7.5 74 +9 +9 по сезону 1017.5 1017.0
00 20.04 В 8 45 км {дождь} 9/4 600 м
[Cu hum As op Cs]
+12.6 +6.9 68 +10 +10 по сезону 1017.1 1016.6 +7.5 +12.8 0.8
03 20.04 В 5 30 км 10/10 1000 м
[]
+12.0 +6.3 68 +10 +10 по сезону 1016.1 1015.6
06 20.04 В 4 24 км слабый дождь 10/8 1000 м
[Sc Ac As]
+10.2 +7.3 82 +8 +8 по сезону 1016.6 1016.1 +7.5 +12.8 0.0 221
09 20.04 В 5 19 км 10/10 300 м
[]
+9.2 +8.0 92 +6 +6 по сезону 1018.0 1017.5
12 20.04 СВ 3 24 км {дождь} 10/9 100 м
[Sc Ac As]
+8.8 +7.9 94 +6 +6 по сезону 1019.1 1018.6 +8.7 +12.8 4
15 20.04 В 4 24 км 10/10 200 м
[]
+8.5 +7.0 90 +5 +5 прохладно 1020.7 1020.2
18 20.04 ЮЗ 4 24 км {дождь} 10/8 300 м
[Cu med, cong Ac As]
+10.3 +8.1 86 +8 +8 по сезону 1022.5 1022.0 +8.5 +11.7 0.0
21 20.04 ЮЗ 4 30 км 8/8 600 м
[]
+12.2 +7.7 74 +10 +13 по сезону 1023.7 1023.2
00 21.04 З 4 45 км 5/1 1000 м
[Cu hum Ac trans Ci fib]
+12.2 +7.3 72 +10 +14 по сезону 1025.0 1024.5 +8.5 +13.2
03 21.04 С 1 45 км 3/0 2000 м
[]
+10.9 +6.9 76 +12 +12 тепло 1026.0 1025.5
06 21.04 С 1 30 км 6/0 2000 м
[Ac As]
+9.1 +6.9 86 +8 +8 по сезону 1028.3 1027.8 +8.5 +13.2 21
09 21.04 В 3 30 км ясно +8.0 +6.0 87 +5 +5 по сезону 1029.3 1028.8
12 21.04 В 3 30 км 10/10 600 м
[Sc]
+8.7 +6.5 86 +6 +6 по сезону 1029.9 1029.4 +6.5 +13.2
15 21.04 В 5 45 км 5/5 300 м
[]
+10.1 +7.5 84 +7 +8 по сезону 1030.1 1029.6
18 21.04 ЮЗ 4 45 км 6/6 600 м
[Cu hum Ci fib]
+10.6 +7.5 81 +8 +11 по сезону 1029.1 1028.6 +6.5 +12.6
21 21.04 З 5 45 км ясно +12.7 +8.6 76 +11 +19 по сезону 1026.4 1025.9
00 22.04 СЗ 4 45 км 1/0
[Ci fib]
+13.6 +9.1 74 +12 +16 по сезону 1022.8 1022.3 +6.5 +14.1
03 22.04 СЗ 4 45 км 4/0
[]
+10.9 +8.5 85 +8 +8 по сезону 1019.3 1018.8
06 22.04 В 2 30 км 10/0
[As op Ci]
+13.6 +3.2 49 +13 +13 тепло 1017.3 1016.8 +6.5 +14.1 19
09 22.04 СВ 3 30 км 5/0
[]
+11.7 +3.3 56 +11 +11 тепло 1014.7 1014.2
12 22.04 СВ 2 30 км 9/0
[Ac As Ci fib]
+10.5 +3.8 63 +9 +9 тепло 1011.7 1011.2 +8.3 +14.1
15 22.04 ЮЗ 1 45 км 10/0
[]
+11.1 +7.1 76 +11 +12 тепло 1008.7 1008.2
18 22.04 СЗ 4 45 км 10/0
[Ac As]
+11.4 +8.6 83 +9 +12 по сезону 1007.5 1007.0 +7.3 +13.8
21 22.04 В 5 16 км 10/10 1000 м
[]
+11.3 +8.7 84 +9 +9 по сезону 1010.5 1010.0
00 23.04 ЮВ 7 24 км слабый дождь 10/10 1000 м
[Sc]
+12.0 +8.5 79 +9 +9 прохладно 1010.9 1010.4 +7.3 +13.3 2
03 23.04 ЮВ 5 24 км 9/9 600 м
[]
+11.8 +8.7 81 +9 +9 по сезону 1011.9 1011.4
06 23.04 В 2 19 км слабый ливневой дождь 10/8 1000 м
[Sc Ac As]
+10.0 +7.6 85 +9 +9 по сезону 1013.0 1012.5 +7.3 +13.8 3 211
09 23.04 СВ 3 19 км 10/10 1500 м
[]
+9.6 +7.9 89 +7 +7 по сезону 1013.4 1012.9
12 23.04 В 4 19 км {ливн. осадки} 10/6 300 м
[Sc Ac As]
+9.1 +8.2 94 +6 +6 по сезону 1012.4 1011.9 +8.8 +13.8 3
15 23.04 В 6 24 км 10/10 600 м
[]
+9.1 +8.0 93 +5 +5 прохладно 1012.1 1011.6
18 23.04 В 6 30 км {ливн. осадки} 10/8 300 м
[Sc Ac As]
+10.9 +7.8 81 +8 +8 по сезону 1011.7 1011.2 +8.6 +11.4 1
21 23.04 В 5 30 км 10/10 600 м
[]
+12.6 +7.5 71 +10 +10 по сезону 1010.0 1009.5
00 24.04 ЮВ 7 19 км слабый ливневой дождь 10/6 600 м
[Sc As op]
+10.7 +7.8 82 +7 +7 холодно 1008.9 1008.4 +8.6 +13.4 0.2
03 24.04 В 4 16 км 10/10 200 м
[]
+9.5 +8.4 93 +6 +6 прохладно 1008.1 1007.6
06 24.04 ЮВ 4 16 км слабый ливневой дождь 10/9 200 м
[Sc Ac As]
+8.8 +7.7 93 +6 +6 по сезону 1008.2 1007.7 +8.6 +13.4 1 231
09 24.04 ЮВ 4 12 км 10/10 200 м
[]
+8.5 +7.9 96 +5 +5 по сезону 1008.0 1007.5
12 24.04 В 5 19 км в посл. час ливневой дождь 10/10 200 м
[Sc]
+7.6 +6.2 91 +4 +4 по сезону 1007.5 1007.0 +7.5 +13.4 5
15 24.04 В 3 30 км 10/10 600 м
[]
+8.5 +6.6 88 +6 +6 по сезону 1007.6 1007.1
18 24.04 ЮЗ 1 30 км {ливн. осадки} 10/10 200 м
[Cu Sc]
+9.6 +5.8 77 +9 +9 по сезону 1008.0 1007.5 +7.4 +10.5 0.2
21 24.04 З 6 45 км 1/1 600 м
[]
+11.8 +8.7 81 +9 +15 по сезону 1008.4 1007.9
00 25.04 З 6 45 км 3/1 1000 м
[Cu med, cong Ci fib]
+12.9 +9.2 78 +10 +12 по сезону 1007.9 1007.4 +7.4 +13.0
03 25.04 СЗ 3 45 км 1/1 1000 м
[]
+11.0 +7.7 80 +9 +9 по сезону 1008.6 1008.1
06 25.04 ЮВ 2 30 км 1/1 1000 м
[Sc]
+9.7 +6.3 79 +8 +8 по сезону 1011.0 1010.5 +7.4 +13.1 22

 

Местоположение метеостанции Vancouver (Канада): широта 49.20 долгота -123.10 высота над уровнем моря 4 м.

В архиве по умолчанию представлена погода в Vancouver за последнюю неделю. Архивные данные за месяц целиком и за предыдущие месяцы, начиная с января 2011 года, Вы можете получить, выбрав интересующий диапазон дат из раскрывающегося списка и нажав кнопку "Ввод!".

Внимание! Время в таблицах - всемирное. Для получения местного времени необходимо прибавить поправку, которая в Vancouver равна -8 ч.

Смотрите также архив погоды в соседних городах и на ближайших метеорологических станциях:

Погода в Vancouver Hillcrest (Канада) (3 км)
Погода в Vancouver Sea Island Ccg (Канада) (7 км)
Погода в Vancouver (aut) (Канада) (11 км)
Погода в West Vancouver Camp (Канада) (14 км)
Погода в Point Atkinson (Канада) (17 км)
Погода в Sand Heads (Канада) (18 км)
Погода в Cypress Bowl South (Канада) (21 км)
Погода в Cypress Bowl North (Канада) (23 км)
Погода в Howe Sound (Канада) (32 км)
Погода в White Rock Campbell (Канада) (35 км)

Пояснения к столбцам:

Ветер - указаны скорость ветра в м/с - средняя за 10 мин, порывы в срок и между сроками (в фигурных скобках) и направление, откуда дует ветер: С - северный, СВ - северо-восточный, В - восточный, ЮВ - юго-восточный, Ю - южный, ЮЗ - юго-западный, З - западный, СЗ - северо-западный.
Видимость - горизонтальная дальность видимости в метрах или километрах. При видимости от 1 до 10 км при отсутствии осадков обычно наблюдается дымка, при ухудшении видимости до 1 км и менее - туман. В сухую погоду видимость может ухудшаться дымом, пылью или мглою.
Явления - указаны атмосферные явления, наблюдавшиеся в срок или в последний час перед сроком; фигурными скобками обозначены явления, наблюдавшиеся между сроками (за 1-3 часа до срока); квадратными скобками обозначены град или гололедные отложения с указанием их диаметра в мм.
Облачность - указаны через наклонную черту общая и нижняя облачность в баллах и высота нижней границы облаков в метрах; квадратными скобками обозначены формы облаков: Ci - перистые, Cs - перисто-слоистые, Cc - перисто-кучевые, Ac - высококучевые, As - высокослоистые, Sc - слоисто-кучевые, Ns - слоисто-дождевые, Cu - кучевые, Cb - кучево-дождевые. Подробнее классификацию облаков см. в Атласе облаков (PDF).
T - Температура воздуха - температура, измеренная на высоте 2 м над землей.
Td - Температура точки росы - температура, при понижении до которой содержащийся в воздухе водяной пар достигнет насыщения.
f - Относительная влажность воздуха - влажноcть воздуха, измеренная на высоте 2 м над землей.
Te - Эффективная температура - температура, которую ощущает одетый по сезону человек в тени. Характеристика душности погоды. При расчете учитывается влияние влажности воздуха и скорости ветра на теплоощущения человека.
Tes - Эффективная температура на солнце - температура, которую ощущает человек, с поправкой на солнечный нагрев. Характеристика знойности погоды. Зависит от высоты солнца над горизонтом, облачности и скорости ветра. Ночью, в пасмурную погоду, а также при ветре 12 м/с и более поправка равна нулю.
P - Атмосферное давление - приведенное к уровню моря атмосферное давление.
Po - Атмосферное давление - измеренное на уровне метеостанции атмосферное давление.
Tmin - Минимальная температура - минимум температуры воздуха на высоте 2 м над землей.
Tmax - Максимальная температура - максимум температуры воздуха на высоте 2 м над землей.
R - Количество осадков - Количество выпавших осадков за период времени, мм. При наведении курсора мыши на число - период времени, за который выпало указанное количество осадков.
R24 - Количество осадков - Количество выпавших осадков за 24 часа, мм.
S - Снежный покров - Высота снежного покрова, см. При наведении курсора мыши на число - состояние снежного покрова и степень покрытия местности в баллах.